period_start,C,m1,H,J0,J1,J2,J3,J4,J5,JA,JB,JC,JD,JJ,JK,JN,#
2016-06-20 00:01:51,0.03,4.70,0.00,19.94,25.87,29.58,14.71,46.58,1015.62,2041.49,2287.04,2003.98,2277.00,599.81,601.47,36.01,0000 0000 0000 0000 000000
2016-06-20 00:06:53,0.02,4.70,0.00,19.90,25.85,29.61,14.91,46.96,1015.64,2041.82,2287.01,2003.98,2277.00,600.54,602.30,36.06,0000 0000 0000 0000 000000
2016-06-20 00:11:54,0.01,4.70,0.00,19.86,25.85,29.60,14.81,46.69,1015.64,2041.92,2287.00,2003.97,2277.00,600.12,602.13,36.11,0000 0000 0000 0000 000000
2016-06-20 00:16:56,-0.00,4.70,0.00,19.84,25.82,29.55,14.80,46.63,1015.64,2041.96,2287.01,2003.98,2277.00,600.16,602.13,36.16,0000 0000 0000 0000 000000
2016-06-20 00:21:57,0.00,4.70,0.00,19.83,25.82,29.56,14.83,46.75,1015.64,2041.96,2287.00,2003.97,2277.00,600.24,602.19,36.21,0000 0000 0000 0000 000000
2016-06-20 00:26:58,0.00,4.70,0.00,19.82,25.81,29.56,14.72,46.47,1015.64,2041.98,2287.00,2003.97,2277.01,599.82,601.82,36.26,0000 0000 0000 0000 000000
2016-06-20 00:31:59,0.00,4.70,0.00,19.85,25.80,29.56,14.83,46.76,1015.64,2041.99,2287.00,2003.98,2277.01,600.00,601.75,36.31,0000 0000 0000 0000 000000
2016-06-20 00:37:00,0.00,4.70,0.00,19.83,25.80,29.49,14.79,46.63,1015.64,2041.99,2287.00,2003.98,2277.01,600.01,601.72,36.36,0000 0000 0000 0000 000000
2016-06-20 00:42:01,0.00,4.70,0.00,19.88,25.79,29.54,14.85,46.67,1015.65,2041.99,2287.01,2003.99,2277.01,600.05,601.80,36.41,0000 0000 0000 0000 000000
2016-06-20 00:47:03,0.00,4.70,0.00,19.86,25.77,29.48,14.77,46.56,1015.66,2041.99,2287.01,2003.99,2277.00,599.91,601.91,36.46,0000 0000 0000 0000 000000
2016-06-20 00:52:04,0.00,4.70,0.00,19.88,25.77,29.45,14.73,46.65,1015.67,2041.99,2286.92,2003.92,2277.00,599.86,601.58,36.51,0000 0000 0000 0000 000000
2016-06-20 00:57:05,0.02,4.70,0.00,19.90,25.77,29.50,14.83,46.79,1015.66,2041.99,2286.51,2003.72,2276.99,600.40,602.18,36.56,0000 0000 0000 0000 000000
2016-06-20 01:02:07,-0.01,4.70,0.00,19.89,25.75,29.47,14.83,46.91,1015.68,2041.99,2286.66,2003.75,2276.99,600.33,602.11,36.61,0000 0000 0000 0000 000000
2016-06-20 01:07:08,-0.01,4.70,0.00,19.88,25.75,29.48,14.81,46.63,1015.68,2041.99,2286.87,2003.87,2276.99,599.67,601.48,36.66,0000 0000 0000 0000 000000
2016-06-20 01:12:09,0.00,4.70,0.00,19.88,25.75,29.46,14.80,46.72,1015.91,2041.99,2286.90,2003.92,2276.99,600.45,602.45,36.71,0000 0000 0000 0000 000000
2016-06-20 01:17:10,-0.00,4.70,0.00,19.91,25.75,29.48,14.78,46.75,1016.10,2042.00,2286.97,2003.95,2276.99,599.94,601.96,36.76,0000 0000 0000 0000 000000
2016-06-20 01:22:11,-0.00,4.70,0.00,19.87,25.74,29.45,14.80,46.70,1016.11,2042.00,2286.95,2003.96,2276.99,599.92,602.03,36.81,0000 0000 0000 0000 000000
2016-06-20 01:27:12,-0.00,4.70,0.00,19.88,25.73,29.43,14.71,46.64,1016.10,2042.00,2286.96,2003.95,2276.99,599.94,601.97,36.86,0000 0000 0000 0000 000000
2016-06-20 01:32:14,0.00,4.70,0.00,19.90,25.72,29.40,14.87,46.88,1016.11,2042.00,2286.97,2003.94,2276.99,600.19,602.33,36.92,0000 0000 0000 0000 000000
2016-06-20 01:37:15,0.00,4.70,0.00,19.87,25.72,29.43,14.82,46.65,1016.13,2042.00,2286.93,2003.95,2276.99,599.82,601.91,36.97,0000 0000 0000 0000 000000
2016-06-20 01:42:16,0.01,4.70,0.00,19.82,25.72,29.43,14.79,46.71,1016.13,2042.00,2286.59,2003.93,2276.99,599.99,602.18,37.02,0000 0000 0000 0000 000000
2016-06-20 01:47:18,0.01,4.70,0.00,19.89,25.72,29.44,14.74,46.49,1016.12,2042.02,2286.39,2003.93,2276.99,599.64,601.70,37.07,0000 0000 0000 0000 000000
2016-06-20 01:52:19,0.00,4.70,0.00,19.88,25.72,29.45,14.89,46.86,1016.13,2042.00,2286.34,2003.84,2276.99,599.87,601.91,37.12,0000 0000 0000 0000 000000
2016-06-20 01:57:20,0.01,4.71,0.00,19.91,25.72,29.39,14.75,46.83,1016.13,2042.00,2286.11,2003.74,2276.99,600.27,602.40,37.17,0000 0000 0000 0000 000000
2016-06-20 02:02:21,0.00,4.71,0.00,19.93,25.71,29.42,14.74,46.49,1016.14,2042.00,2286.15,2003.74,2276.99,600.01,601.93,37.22,0000 0000 0000 0000 000000
2016-06-20 02:07:22,0.01,4.71,0.00,19.87,25.70,29.43,14.75,46.54,1016.14,2042.01,2286.01,2003.51,2276.98,599.53,601.69,37.27,0000 0000 0000 0000 000000
2016-06-20 02:12:24,0.01,4.71,0.00,19.91,25.70,29.42,14.87,46.62,1016.17,2042.01,2286.00,2003.42,2276.96,600.95,602.96,37.32,0000 0000 0000 0000 000000
2016-06-20 02:17:25,0.00,4.71,0.00,19.93,25.70,29.42,14.85,46.71,1016.19,2042.01,2286.00,2003.24,2276.96,600.31,602.46,37.37,0000 0000 0000 0000 000000
2016-06-20 02:22:26,-0.01,4.71,0.00,19.94,25.70,29.42,14.89,46.77,1016.19,2042.02,2286.00,2003.42,2276.98,599.98,601.98,37.42,0000 0000 0000 0000 000000
2016-06-20 02:27:28,0.01,4.71,0.00,19.92,25.70,29.35,14.70,46.35,1016.18,2042.02,2286.00,2003.25,2276.95,599.84,601.87,37.47,0000 0000 0000 0000 000000
2016-06-20 02:32:29,0.01,4.71,0.00,19.95,25.70,29.32,14.89,46.82,1016.16,2042.02,2285.96,2003.11,2276.81,600.31,602.27,37.52,0000 0000 0000 0000 000000
2016-06-20 02:37:30,0.04,4.71,0.00,19.90,25.70,29.38,14.76,46.35,1016.15,2042.01,2285.18,2003.01,2276.28,599.71,601.77,37.57,0000 0000 0000 0000 000000
2016-06-20 02:42:31,0.00,4.71,0.00,19.91,25.70,29.33,14.72,46.42,1016.27,2042.02,2285.00,2003.00,2276.04,599.54,601.67,37.62,0000 0000 0000 0000 000000
2016-06-20 02:47:33,-0.00,4.71,0.00,19.92,25.70,29.39,14.76,46.53,1016.41,2042.02,2285.00,2003.00,2276.03,599.48,601.71,37.67,0000 0000 0000 0000 000000
2016-06-20 02:52:34,-0.00,4.71,0.00,19.96,25.70,29.39,14.77,46.47,1016.50,2042.03,2284.99,2003.00,2276.01,600.29,602.39,37.72,0000 0000 0000 0000 000000
2016-06-20 02:57:35,0.00,4.71,0.00,19.94,25.70,29.32,14.73,46.52,1016.61,2042.03,2284.95,2003.00,2276.02,599.37,601.54,37.77,0000 0000 0000 0000 000000
2016-06-20 03:02:37,0.00,4.71,0.00,19.93,25.70,29.32,14.89,46.67,1016.62,2042.05,2284.92,2003.00,2276.01,599.91,602.28,37.82,0000 0000 0000 0000 000000
2016-06-20 03:07:38,-0.00,4.71,0.00,19.95,25.70,29.37,14.79,46.63,1016.62,2042.02,2284.95,2003.00,2276.01,600.13,602.45,37.87,0000 0000 0000 0000 000000
2016-06-20 03:12:39,0.00,4.71,0.00,19.98,25.70,29.27,14.83,46.81,1016.62,2042.01,2284.89,2002.99,2276.00,600.01,602.24,37.93,0000 0000 0000 0000 000000
2016-06-20 03:17:41,0.00,4.71,0.00,19.93,25.70,29.37,14.83,46.67,1016.62,2042.01,2284.82,2002.99,2276.00,600.09,602.36,37.98,0000 0000 0000 0000 000000
2016-06-20 03:22:42,0.00,4.71,0.00,19.94,25.70,29.36,14.77,46.87,1016.62,2042.01,2284.67,2002.98,2276.00,599.86,602.39,38.03,0000 0000 0000 0000 000000
2016-06-20 03:27:44,0.01,4.71,0.00,19.93,25.70,29.36,14.80,46.60,1016.62,2042.00,2284.36,2002.97,2276.00,600.24,602.38,38.08,0000 0000 0000 0000 000000
2016-06-20 03:32:45,0.01,4.71,0.00,19.97,25.72,29.38,14.81,46.67,1016.62,2042.01,2284.04,2002.93,2275.98,600.20,602.31,38.13,0000 0000 0000 0000 000000
2016-06-20 03:37:46,0.05,4.71,0.00,19.98,25.72,29.36,14.74,46.60,1016.62,2042.01,2283.80,2002.42,2275.72,599.68,601.81,38.18,0000 0000 0000 0000 000000
2016-06-20 03:42:47,0.04,4.72,0.00,20.02,25.72,29.38,14.76,46.58,1016.62,2042.00,2283.00,2002.02,2275.08,599.79,601.96,38.23,0000 0000 0000 0000 000000
2016-06-20 03:47:49,0.01,4.72,0.00,20.00,25.72,29.35,14.85,46.63,1016.62,2042.00,2282.50,2002.00,2275.00,600.52,602.65,38.28,0000 0000 0000 0000 000000
2016-06-20 03:52:50,0.01,4.72,0.00,20.02,25.72,29.46,14.67,46.38,1016.63,2042.00,2282.11,2002.00,2275.00,600.22,602.56,38.33,0000 0000 0000 0000 000000
2016-06-20 03:57:51,0.00,4.72,0.00,20.03,25.74,29.44,14.76,46.48,1016.64,2042.00,2282.01,2001.99,2275.00,600.26,602.19,38.38,0000 0000 0000 0000 000000
2016-06-20 04:02:52,-0.00,4.72,0.00,20.03,25.75,29.31,14.71,46.52,1016.64,2042.00,2282.00,2001.97,2274.98,599.97,602.08,38.43,0000 0000 0000 0000 000000
2016-06-20 04:07:54,0.00,4.72,0.00,20.05,25.75,29.33,14.74,46.56,1016.65,2042.00,2281.99,2001.96,2274.95,599.68,601.66,38.48,0000 0000 0000 0000 000000
2016-06-20 04:12:55,0.00,4.72,0.00,20.07,25.75,29.41,14.69,46.76,1016.75,2042.00,2281.97,2001.91,2274.87,599.70,601.77,38.53,0000 0000 0000 0000 000000
2016-06-20 04:17:57,0.04,4.72,0.00,20.07,25.75,29.37,14.68,46.49,1016.79,2042.00,2281.79,2001.71,2274.53,599.76,601.86,38.58,0000 0000 0000 0000 000000
2016-06-20 04:22:58,0.03,4.72,0.00,20.04,25.76,29.38,14.87,46.96,1016.75,2042.00,2281.29,2001.35,2274.14,600.33,602.60,38.63,0000 0000 0000 0000 000000
2016-06-20 04:27:59,0.02,4.72,0.00,20.05,25.77,29.40,14.74,46.62,1016.78,2041.99,2281.02,2001.05,2274.01,599.79,601.94,38.68,0000 0000 0000 0000 000000
2016-06-20 04:33:00,0.00,4.72,0.00,20.06,25.77,29.39,14.61,46.20,1016.81,2041.99,2281.00,2001.02,2274.00,599.83,601.99,38.73,0000 0000 0000 0000 000000
2016-06-20 04:38:02,-0.00,4.72,0.00,20.04,25.77,29.36,14.76,46.57,1016.76,2041.99,2281.00,2001.01,2274.00,600.05,602.09,38.78,0000 0000 0000 0000 000000
2016-06-20 04:43:03,0.00,4.72,0.00,20.06,25.79,29.41,14.73,46.52,1016.73,2041.98,2280.98,2001.00,2274.00,599.89,601.93,38.83,0000 0000 0000 0000 000000
2016-06-20 04:48:04,0.00,4.72,0.00,20.02,25.80,29.36,14.71,46.54,1016.87,2041.99,2280.94,2001.00,2273.99,600.02,602.34,38.88,0000 0000 0000 0000 000000
2016-06-20 04:53:06,0.02,4.72,0.00,20.05,25.80,29.43,14.73,46.44,1016.90,2041.99,2280.39,2001.00,2273.93,599.68,601.88,38.94,0000 0000 0000 0000 000000
2016-06-20 04:58:07,0.01,4.73,0.00,20.07,25.81,29.44,14.79,46.62,1016.86,2041.99,2280.07,2000.98,2273.73,600.09,602.08,38.99,0000 0000 0000 0000 000000
2016-06-20 05:03:09,0.00,4.73,0.00,20.06,25.82,29.39,14.86,46.67,1016.88,2041.98,2280.03,2000.99,2273.50,600.38,602.45,39.04,0000 0000 0000 0000 000000
2016-06-20 05:08:10,0.01,4.73,0.00,20.06,25.82,29.46,14.74,46.63,1017.01,2041.97,2280.01,2000.97,2273.13,600.43,602.81,39.09,0000 0000 0000 0000 000000
2016-06-20 05:13:11,0.00,4.73,0.00,20.07,25.83,29.44,14.71,46.78,1016.97,2041.97,2280.00,2000.86,2273.03,599.54,601.73,39.14,0000 0000 0000 0000 000000
2016-06-20 05:18:13,0.04,4.73,0.00,19.95,25.85,29.52,14.73,46.68,1016.98,2041.97,2279.93,2000.31,2273.00,599.98,602.43,39.19,0000 0000 0000 0000 000000
2016-06-20 05:23:14,0.01,4.73,0.00,19.70,25.85,29.56,14.85,46.74,1017.04,2041.95,2279.69,2000.08,2273.00,599.97,603.05,39.24,0000 0000 0000 0000 000000
2016-06-20 05:28:15,0.02,4.73,0.00,19.63,25.85,29.56,14.88,46.92,1017.03,2041.95,2279.16,2000.04,2272.97,600.30,603.36,39.29,0000 0000 0000 0000 000000
2016-06-20 05:33:17,0.00,4.73,0.00,19.68,25.86,29.58,14.80,46.76,1017.08,2041.95,2279.03,2000.01,2272.96,599.83,602.81,39.34,0000 0000 0000 0000 000000
2016-06-20 05:38:18,-0.00,4.73,0.00,19.77,25.87,29.56,14.75,46.66,1017.05,2041.94,2279.00,2000.00,2272.91,600.03,602.84,39.39,0000 0000 0000 0000 000000
2016-06-20 05:43:19,0.00,4.73,0.00,19.83,25.87,29.63,14.86,46.63,1017.03,2041.92,2279.00,2000.00,2272.69,600.62,603.22,39.44,0000 0000 0000 0000 000000
2016-06-20 05:48:20,0.00,4.73,0.00,19.89,25.87,29.59,14.73,46.68,1017.07,2041.93,2279.00,2000.00,2272.54,600.14,602.79,39.49,0000 0000 0000 0000 000000
2016-06-20 05:53:21,0.00,4.73,0.00,19.89,25.87,29.54,14.72,46.59,1017.08,2041.90,2279.00,2000.00,2272.40,599.96,602.66,39.54,0000 0000 0000 0000 000000
2016-06-20 05:58:23,-0.00,4.73,0.00,20.14,25.89,29.39,14.72,46.59,1017.05,2041.88,2278.98,2000.00,2272.24,599.88,601.92,39.59,0000 0000 0000 0000 000000
2016-06-20 06:03:24,-0.01,4.73,0.00,20.12,25.90,29.29,14.83,46.63,1017.04,2041.78,2278.99,1999.99,2272.13,600.20,602.18,39.64,0000 0000 0000 0000 000000
2016-06-20 06:08:26,-0.03,4.73,0.00,19.99,25.90,29.30,14.80,46.78,1017.03,2041.63,2278.99,1999.99,2272.13,599.87,602.27,39.69,0000 0000 0000 0000 000000
2016-06-20 06:13:27,-0.02,4.73,0.00,20.03,25.92,29.48,14.79,46.83,1017.03,2041.35,2278.98,1999.99,2272.06,599.88,602.24,39.74,0000 0000 0000 0000 000000
2016-06-20 06:18:28,-0.02,4.73,0.00,20.04,25.92,29.54,14.77,46.74,1017.08,2041.11,2278.98,1999.99,2272.02,599.76,602.02,39.79,0000 0000 0000 0000 000000
2016-06-20 06:23:30,-0.00,4.73,0.00,20.00,25.93,29.58,14.83,46.85,1017.10,2041.04,2278.96,1999.97,2272.02,600.28,602.72,39.84,0000 0000 0000 0000 000000
2016-06-20 06:28:31,0.00,4.73,0.00,20.00,25.95,29.58,14.74,46.65,1017.10,2041.02,2278.90,1999.95,2272.01,599.94,602.31,39.89,0000 0000 0000 0000 000000
2016-06-20 06:33:32,-0.00,4.73,0.00,19.98,25.95,29.62,14.84,46.91,1017.10,2041.02,2278.93,1999.98,2272.00,600.20,602.56,39.95,0000 0000 0000 0000 000000
2016-06-20 06:38:34,0.00,4.73,0.00,20.02,25.97,29.61,14.81,47.00,1017.10,2041.02,2278.95,1999.95,2272.00,600.48,602.77,40.00,0000 0000 0000 0000 000000
2016-06-20 06:43:35,0.00,4.73,0.00,20.04,25.97,29.61,14.78,47.00,1017.10,2041.01,2278.93,1999.92,2272.00,600.05,602.38,40.05,0000 0000 0000 0000 000000
2016-06-20 06:48:36,0.01,4.73,0.00,20.05,25.99,29.66,14.86,47.00,1017.10,2041.00,2278.87,1999.75,2272.00,600.05,602.38,40.10,0000 0000 0000 0000 000000
2016-06-20 06:53:37,0.01,4.73,0.00,20.12,26.00,29.64,14.71,46.57,1017.12,2041.00,2278.90,1999.64,2272.00,599.52,601.76,40.15,0000 0000 0000 0000 000000
2016-06-20 06:58:38,0.01,4.73,0.00,20.09,26.02,29.67,14.84,46.83,1017.11,2040.99,2278.85,1999.41,2272.00,600.40,602.63,40.20,0000 0000 0000 0000 000000
2016-06-20 07:03:40,0.01,4.73,0.00,20.09,26.02,29.66,14.74,46.88,1017.11,2040.99,2278.77,1999.20,2271.99,599.75,602.16,40.25,0000 0000 0000 0000 000000
2016-06-20 07:08:41,0.02,4.73,0.00,20.18,26.05,29.55,14.75,46.64,1017.11,2040.97,2278.37,1999.04,2271.96,599.75,601.79,40.30,0000 0000 0000 0000 000000
2016-06-20 07:13:42,-0.00,4.73,0.00,20.22,26.06,29.53,14.84,47.05,1017.11,2040.88,2278.30,1999.01,2271.86,600.27,602.12,40.35,0000 0000 0000 0000 000000
2016-06-20 07:18:43,-0.02,4.73,0.00,20.27,26.07,29.51,14.83,46.73,1017.12,2040.70,2278.14,1999.00,2271.59,600.03,601.99,40.40,0000 0000 0000 0000 000000
2016-06-20 07:23:45,-0.03,4.73,0.00,20.33,26.10,29.45,14.75,46.67,1017.11,2040.44,2278.44,1999.00,2271.79,599.85,601.54,40.45,0000 0000 0000 0000 000000
2016-06-20 07:28:46,-0.04,4.73,0.00,20.35,26.11,29.52,14.73,46.67,1017.11,2040.12,2278.51,1999.00,2271.72,600.20,601.91,40.50,0000 0000 0000 0000 000000
2016-06-20 07:33:47,0.02,4.73,0.00,20.36,26.13,29.46,14.78,46.71,1017.11,2040.04,2278.20,1999.00,2271.20,600.41,602.16,40.55,0000 0000 0000 0000 000000
2016-06-20 07:38:48,0.00,4.73,0.00,20.42,26.15,29.51,14.70,46.66,1017.11,2040.02,2278.08,1999.00,2271.06,599.94,601.49,40.60,0000 0000 0000 0000 000000
2016-06-20 07:43:49,0.00,4.73,0.00,20.42,26.17,29.50,14.73,46.55,1017.11,2040.00,2278.01,1998.99,2271.01,600.06,601.78,40.65,0000 0000 0000 0000 000000
2016-06-20 07:48:51,0.00,4.73,0.00,20.40,26.20,29.45,14.76,46.62,1017.12,2040.00,2278.00,1998.97,2271.00,600.16,601.72,40.70,0000 0000 0000 0000 000000
2016-06-20 07:53:51,0.00,4.73,0.00,20.43,26.21,29.48,14.79,46.61,1017.19,2040.00,2278.00,1998.94,2270.99,600.18,601.69,40.75,0000 0000 0000 0000 000000
2016-06-20 07:58:52,0.01,4.73,0.00,20.51,26.23,29.49,14.68,46.63,1017.40,2040.00,2277.99,1998.75,2270.99,599.81,601.41,40.80,0000 0000 0000 0000 000000
2016-06-20 08:03:53,0.02,4.73,0.00,20.59,26.25,29.50,14.62,46.33,1017.52,2039.99,2277.98,1998.31,2270.95,599.58,601.08,40.85,0000 0000 0000 0000 000000
2016-06-20 08:08:55,0.01,4.73,0.00,20.72,26.27,29.58,14.76,46.56,1017.52,2039.98,2277.93,1998.09,2270.84,599.75,600.95,40.91,0000 0000 0000 0000 000000
2016-06-20 08:13:56,0.01,4.73,0.00,20.71,26.30,29.57,14.64,46.27,1017.52,2039.94,2277.77,1998.02,2270.46,599.82,600.91,40.96,0000 0000 0000 0000 000000
2016-06-20 08:18:58,-0.00,4.73,0.00,20.71,26.32,29.62,14.67,46.42,1017.59,2039.67,2277.17,1998.00,2270.09,599.98,601.18,41.01,0000 0000 0000 0000 000000
2016-06-20 08:23:59,-0.03,4.73,0.00,20.73,26.35,29.63,14.64,46.45,1017.59,2039.34,2277.00,1997.95,2270.00,599.83,601.04,41.06,0000 0000 0000 0000 000000
2016-06-20 08:29:00,0.01,4.73,0.00,20.78,26.38,29.64,14.68,46.38,1017.59,2039.06,2276.94,1997.50,2269.83,600.49,601.41,41.11,0000 0000 0000 0000 000000
2016-06-20 08:34:01,0.03,4.73,0.00,20.84,26.41,29.66,14.77,46.54,1017.59,2039.01,2276.63,1997.12,2269.37,600.67,601.56,41.16,0000 0000 0000 0000 000000
2016-06-20 08:39:02,0.02,4.73,0.00,20.89,26.44,29.73,14.72,46.58,1017.59,2039.01,2276.14,1997.03,2269.04,600.13,600.97,41.21,0000 0000 0000 0000 000000
2016-06-20 08:44:04,0.00,4.73,0.00,21.58,26.47,29.87,14.63,46.37,1017.60,2039.00,2276.00,1997.00,2269.01,599.95,599.49,41.26,0000 0000 0000 0000 000000
2016-06-20 08:49:05,0.00,4.73,0.00,22.63,26.53,29.80,14.58,46.00,1017.61,2038.97,2276.00,1996.99,2268.98,600.56,597.92,41.31,0000 0000 0000 0000 000000
2016-06-20 08:54:06,-0.01,4.73,0.00,23.05,26.59,29.67,14.50,46.01,1017.63,2038.74,2275.98,1996.76,2268.74,600.57,597.16,41.36,0000 0000 0000 0000 000000
2016-06-20 08:59:07,-0.01,4.73,0.00,23.23,26.66,29.67,14.40,45.66,1017.75,2038.12,2275.92,1996.08,2268.06,599.73,595.88,41.41,0000 0000 0000 0000 000000
2016-06-20 09:04:09,0.02,4.73,0.00,23.39,26.74,29.78,14.40,45.56,1017.79,2038.00,2275.25,1996.00,2267.99,600.21,596.12,41.46,0000 0000 0000 0000 000000
2016-06-20 09:09:10,0.02,4.73,0.00,23.48,26.82,29.88,14.40,45.70,1017.97,2037.97,2275.00,1995.87,2267.61,600.25,596.23,41.51,0000 0000 0000 0000 000000
2016-06-20 09:14:11,-0.05,4.73,0.00,23.54,26.90,29.93,14.49,45.73,1018.05,2037.26,2274.87,1995.08,2267.02,599.91,595.83,41.56,0000 0000 0000 0000 000000
2016-06-20 09:19:12,0.01,4.73,0.00,23.59,26.98,30.03,14.44,45.69,1018.05,2037.00,2274.23,1995.00,2266.95,599.63,595.28,41.61,0000 0000 0000 0000 000000
2016-06-20 09:24:13,0.03,4.73,0.00,23.61,27.07,30.11,14.50,45.84,1018.06,2036.97,2274.01,1994.81,2266.24,600.57,596.09,41.66,0000 0000 0000 0000 000000
2016-06-20 09:29:14,-0.05,4.73,0.00,23.65,27.15,30.18,14.41,45.74,1018.08,2036.34,2273.97,1994.11,2266.01,600.10,595.71,41.71,0000 0000 0000 0000 000000
2016-06-20 09:34:15,0.03,4.73,0.00,23.73,27.23,30.24,14.53,45.94,1018.08,2036.01,2273.34,1994.00,2265.68,600.10,595.56,41.76,0000 0000 0000 0000 000000
2016-06-20 09:39:16,0.02,4.73,0.00,23.74,27.30,30.31,14.41,45.67,1018.08,2035.95,2273.00,1993.79,2265.03,599.91,595.27,41.81,0000 0000 0000 0000 000000
2016-06-20 09:44:18,-0.05,4.73,0.00,23.80,27.38,30.36,14.45,45.71,1018.08,2035.31,2272.85,1993.08,2264.97,599.74,595.05,41.86,0000 0000 0000 0000 000000
2016-06-20 09:49:19,0.03,4.73,0.00,23.86,27.45,30.40,14.47,45.80,1018.08,2035.00,2272.14,1993.00,2264.37,600.31,595.44,41.91,0000 0000 0000 0000 000000
2016-06-20 09:54:20,0.00,4.73,0.00,23.92,27.52,30.46,14.44,45.49,1018.08,2034.97,2272.00,1992.91,2264.01,600.05,594.96,41.97,0000 0000 0000 0000 000000
2016-06-20 09:59:22,-0.04,4.73,0.00,23.91,27.58,30.52,14.50,45.69,1018.08,2034.46,2271.99,1992.27,2263.98,600.16,595.20,42.02,0000 0000 0000 0000 000000
2016-06-20 10:04:23,0.03,4.73,0.00,23.97,27.64,30.56,14.45,45.70,1018.10,2034.01,2271.51,1992.01,2263.40,599.82,594.64,42.07,0000 0000 0000 0000 000000
2016-06-20 10:09:25,0.01,4.73,0.00,24.02,27.70,30.60,14.45,45.64,1018.11,2033.99,2271.02,1991.99,2263.01,599.78,594.79,42.12,0000 0000 0000 0000 000000
2016-06-20 10:14:26,-0.00,4.73,0.00,23.76,27.75,30.70,14.43,45.32,1018.11,2033.77,2270.93,1991.63,2262.98,599.98,595.35,42.17,0000 0000 0000 0000 000000
2016-06-20 10:19:27,0.00,4.73,0.00,23.13,27.80,30.85,14.54,45.94,1018.30,2033.14,2270.16,1991.06,2262.36,599.41,596.18,42.22,0000 0000 0000 0000 000000
2016-06-20 10:24:28,0.00,4.73,0.00,23.23,27.83,30.91,14.60,45.94,1018.38,2033.00,2270.00,1991.00,2262.02,600.15,596.71,42.27,0000 0000 0000 0000 000000
2016-06-20 10:29:30,0.00,4.73,0.00,23.63,27.87,30.88,14.51,45.83,1018.25,2032.99,2269.98,1990.98,2262.00,600.01,595.79,42.32,0000 0000 0000 0000 000000
2016-06-20 10:34:31,0.02,4.73,0.00,23.73,27.91,30.88,14.45,45.73,1018.28,2032.96,2269.70,1990.80,2261.95,599.60,595.14,42.37,0000 0000 0000 0000 000000
2016-06-20 10:39:33,0.02,4.73,0.00,23.73,27.95,30.91,14.46,45.69,1018.36,2032.72,2269.12,1990.20,2261.47,599.72,595.44,42.42,0000 0000 0000 0000 000000
2016-06-20 10:44:34,-0.05,4.73,0.00,23.82,27.98,30.89,14.38,45.14,1018.32,2032.09,2269.00,1990.02,2261.03,599.19,594.50,42.47,0000 0000 0000 0000 000000
2016-06-20 10:49:36,-0.00,4.73,0.00,23.77,28.01,30.93,14.46,45.67,1018.28,2032.01,2268.97,1990.00,2261.00,600.06,595.53,42.52,0000 0000 0000 0000 000000
2016-06-20 10:54:37,0.00,4.73,0.00,23.80,28.05,30.95,14.51,45.96,1018.14,2032.00,2268.92,1989.98,2261.00,600.49,595.97,42.57,0000 0000 0000 0000 000000
2016-06-20 10:59:38,0.02,4.73,0.00,23.83,28.08,30.97,14.52,45.87,1018.15,2032.00,2268.50,1989.93,2260.93,600.40,595.67,42.62,0000 0000 0000 0000 000000
2016-06-20 11:04:39,0.04,4.73,0.00,23.82,28.11,30.99,14.48,45.66,1018.19,2031.99,2268.07,1989.68,2260.53,599.69,595.40,42.67,0000 0000 0000 0000 000000
2016-06-20 11:09:41,0.02,4.74,0.00,23.70,28.12,31.04,14.48,45.67,1018.17,2031.95,2268.00,1989.24,2260.11,600.20,595.88,42.72,0000 0000 0000 0000 000000
2016-06-20 11:14:42,-0.01,4.74,0.00,23.08,28.15,31.19,14.55,45.88,1018.15,2031.82,2267.98,1989.03,2260.00,600.42,597.12,42.77,0000 0000 0000 0000 000000
2016-06-20 11:19:43,-0.02,4.73,0.00,23.10,28.15,31.37,14.50,45.77,1018.11,2031.60,2267.96,1989.01,2260.00,600.03,596.64,42.82,0000 0000 0000 0000 000000
2016-06-20 11:24:44,-0.03,4.73,0.00,23.48,28.17,31.46,14.52,45.73,1018.11,2031.20,2267.81,1989.00,2260.00,599.74,595.56,42.87,0000 0000 0000 0000 000000
2016-06-20 11:29:46,-0.01,4.73,0.00,23.68,28.19,31.20,14.46,45.65,1018.16,2031.07,2267.77,1989.00,2259.99,599.77,595.37,42.92,0000 0000 0000 0000 000000
2016-06-20 11:34:47,0.02,4.73,0.00,23.69,28.21,31.16,14.43,45.58,1018.20,2031.01,2267.30,1989.00,2259.94,599.65,595.28,42.97,0000 0000 0000 0000 000000
2016-06-20 11:39:48,0.00,4.73,0.00,23.65,28.22,31.17,14.48,45.96,1018.15,2031.01,2267.06,1988.99,2259.86,600.09,595.77,43.03,0000 0000 0000 0000 000000
2016-06-20 11:44:49,0.01,4.73,0.00,23.73,28.25,31.14,14.48,45.53,1018.13,2031.00,2267.02,1988.97,2259.63,599.77,595.31,43.08,0000 0000 0000 0000 000000
2016-06-20 11:49:51,0.02,4.73,0.00,23.41,28.27,31.25,14.43,45.83,1018.13,2031.00,2267.01,1988.87,2259.26,599.47,595.59,43.13,0000 0000 0000 0000 000000
2016-06-20 11:54:52,0.02,4.73,0.00,23.41,28.27,31.42,14.62,45.95,1018.10,2031.00,2267.00,1988.66,2259.06,600.26,596.39,43.18,0000 0000 0000 0000 000000
2016-06-20 11:59:54,0.01,4.74,0.00,23.67,28.30,31.30,14.46,45.63,1018.09,2030.99,2266.99,1988.39,2259.02,599.94,595.49,43.23,0000 0000 0000 0000 000000
2016-06-20 12:04:55,0.01,4.74,0.00,23.55,28.32,31.32,14.53,45.79,1018.09,2030.99,2266.98,1988.21,2259.02,600.22,595.97,43.28,0000 0000 0000 0000 000000
2016-06-20 12:09:56,0.00,4.74,0.00,23.24,28.32,31.57,14.57,45.79,1018.08,2030.97,2266.92,1988.03,2259.00,600.38,596.77,43.33,0000 0000 0000 0000 000000
2016-06-20 12:14:57,0.00,4.74,0.00,23.55,28.34,31.61,14.59,45.87,1018.09,2030.93,2266.86,1988.01,2259.00,600.36,596.14,43.38,0000 0000 0000 0000 000000
2016-06-20 12:19:59,-0.01,4.74,0.00,23.73,28.36,31.38,14.43,45.45,1018.09,2030.78,2266.66,1988.01,2258.99,599.48,595.12,43.43,0000 0000 0000 0000 000000
2016-06-20 12:25:00,-0.02,4.74,0.00,23.81,28.37,31.31,14.43,45.57,1018.09,2030.55,2266.25,1988.00,2258.96,599.86,595.31,43.48,0000 0000 0000 0000 000000
2016-06-20 12:30:01,-0.01,4.73,0.00,23.78,28.40,31.32,14.46,45.48,1018.10,2030.15,2266.02,1988.00,2258.69,599.60,594.95,43.53,0000 0000 0000 0000 000000
2016-06-20 12:35:03,0.01,4.73,0.00,23.77,28.41,31.34,14.61,45.99,1018.09,2030.08,2266.00,1987.99,2258.38,600.62,595.78,43.58,0000 0000 0000 0000 000000
2016-06-20 12:40:04,-0.00,4.73,0.00,23.79,28.42,31.33,14.39,45.77,1018.09,2030.02,2266.00,1987.95,2258.13,599.82,595.44,43.63,0000 0000 0000 0000 000000
2016-06-20 12:45:05,-0.00,4.73,0.00,23.83,28.44,31.31,14.51,46.02,1018.08,2030.00,2265.99,1987.88,2258.02,600.07,595.28,43.68,0000 0000 0000 0000 000000
2016-06-20 12:50:06,0.01,4.73,0.00,23.75,28.45,31.36,14.48,45.76,1018.08,2030.00,2265.97,1987.65,2258.00,599.79,595.18,43.73,0000 0000 0000 0000 000000
2016-06-20 12:55:08,0.01,4.73,0.00,23.51,28.47,31.48,14.46,45.81,1018.09,2030.00,2265.96,1987.53,2258.00,600.26,596.13,43.78,0000 0000 0000 0000 000000